Theta_e
312 312 312 312 311 308 304 302 301 299 298 297 297 297 296 296 296 296 296 296 296 296 296 296 296 296 296 296 295 295 294 294 293 292 291 290 290 290 289 289 289 289 289 289 289 288 288 288 287 287 287 286 286 286 285 285 285 284 284 284 284 283 284 284 284 284 284 284 284 284 284 284 284 284 284 284 284 283 283 283 283 283 283 282 282
311 312 312 311 309 307 303 301 300 298 297 297 296 296 296 296 296 296 296 296 296 296 296 296 296 296 296 295 295 295 294 293 293 292 291 290 289 289 289 289 289 289 289 289 288 288 288 288 287 287 287 286 286 285 285 285 284 284 284 283 283 283 283 283 283 284 284 284 284 284 284 284 284 284 283 284 284 284 283 283 283 283 282 282 282
311 312 311 310 308 306 302 301 299 297 296 296 296 296 296 296 296 296 296 296 295 295 295 296 296 296 295 295 295 295 294 293 293 292 291 290 289 289 289 289 289 289 288 288 288 288 288 288 287 287 287 286 286 286 285 285 284 284 283 283 283 283 283 283 283 283 284 284 284 284 284 284 284 284 283 283 284 283 283 283 283 282 282 282 282
310 311 311 309 308 305 302 300 299 297 296 296 295 295 295 295 295 295 295 295 295 295 295 295 295 295 295 295 295 294 294 294 293 292 291 290 290 289 289 289 289 288 288 288 288 288 288 288 287 287 287 286 286 286 285 284 284 284 283 283 283 283 283 283 283 283 283 283 284 283 283 284 283 283 283 283 283 283 283 283 283 282 282 282 281
310 311 311 309 307 305 302 300 298 297 296 295 295 295 295 295 295 295 295 295 295 295 295 295 295 295 295 295 295 295 294 294 293 292 291 290 290 289 289 289 289 288 288 288 288 288 288 287 287 287 287 287 286 286 285 284 284 283 283 283 283 283 283 283 283 283 283 283 283 283 283 283 283 283 283 283 283 283 283 282 282 282 282 281 281
309 311 311 309 308 306 303 300 298 297 296 295 295 295 295 295 295 295 295 294 295 295 295 295 295 295 295 295 295 294 294 293 293 292 291 290 290 290 290 289 289 288 288 288 288 288 287 287 287 287 287 287 286 286 285 285 284 283 283 283 283 283 283 283 283 282 283 283 283 283 283 283 283 283 283 282 282 282 282 282 282 281 281 281 281
309 310 311 310 308 306 304 301 298 297 295 295 294 294 294 294 294 294 294 294 294 295 295 295 295 295 295 294 294 294 293 293 292 292 291 290 290 291 290 289 288 288 288 288 287 287 287 287 287 287 287 287 286 286 286 285 284 283 283 283 283 282 282 282 282 282 282 283 283 283 283 283 283 283 282 282 281 281 281 281 282 281 281 280 280
310 310 311 311 309 306 304 301 299 297 295 294 294 294 294 294 294 294 294 294 294 294 294 294 294 294 294 294 294 293 293 293 292 291 291 290 290 291 290 289 288 288 288 288 287 287 287 287 287 287 287 287 287 286 286 285 284 284 283 283 282 282 282 282 282 282 282 282 282 282 282 283 283 282 282 281 281 280 280 279 280 280 280 280 279
311 311 311 311 310 307 304 301 299 297 295 294 294 294 294 294 294 294 294 294 294 294 293 293 293 294 293 293 293 293 293 292 291 291 291 290 291 291 290 289 288 288 288 287 287 288 287 287 287 287 287 287 287 286 286 285 284 284 283 283 282 282 282 282 282 282 282 282 282 282 282 282 282 282 281 281 280 280 279 279 279 279 279 279 279
310 310 311 311 310 307 304 301 300 298 296 294 294 294 293 294 294 293 293 294 293 293 293 293 293 293 293 293 293 292 292 291 291 291 290 291 291 290 289 289 289 288 288 288 288 288 288 287 287 287 287 287 287 286 286 285 285 284 283 282 282 282 282 282 282 282 282 282 282 282 282 282 282 281 281 280 279 279 279 278 278 278 278 278 279
309 310 310 310 310 307 304 301 299 298 296 295 293 293 293 293 293 293 293 293 293 293 293 293 292 292 292 292 292 292 292 291 291 291 291 291 291 290 290 289 289 288 288 288 288 288 288 287 287 287 287 287 286 286 286 285 285 284 283 283 282 282 282 282 282 282 282 282 282 282 282 282 281 280 280 280 279 279 278 278 277 277 276 276 277
309 309 309 310 310 307 304 301 299 297 296 295 294 293 293 293 293 293 293 293 293 293 292 292 292 292 292 292 291 291 291 291 290 290 291 291 290 290 290 290 289 288 288 288 288 288 288 288 287 287 287 286 286 286 285 285 285 284 283 283 282 282 282 282 282 281 281 282 281 281 281 281 280 280 279 279 279 278 278 277 276 276 276 275 276
308 308 308 309 309 307 304 301 299 298 296 295 294 293 293 293 293 293 293 293 292 292 292 292 292 292 292 291 291 291 290 290 290 290 290 290 290 291 290 289 289 288 288 288 288 288 288 287 287 287 287 287 286 286 285 285 285 284 284 283 282 282 281 281 281 281 281 281 281 281 281 280 280 279 279 278 278 278 277 277 276 275 275 275 275
307 307 307 307 306 305 303 301 299 297 296 295 294 294 293 293 292 293 293 292 292 292 292 292 292 292 292 291 291 291 290 290 290 290 290 290 291 291 290 289 288 288 288 288 288 288 288 287 287 287 287 287 286 286 285 285 285 284 284 283 282 282 281 281 281 281 281 281 281 281 281 280 279 279 278 278 278 277 277 276 276 275 275 275 275
305 306 307 306 305 304 301 300 299 297 296 295 294 294 293 292 293 293 293 292 292 292 292 292 292 292 291 291 291 290 290 290 289 289 290 292 293 291 290 289 288 288 288 288 288 288 288 287 288 288 287 287 287 286 285 285 285 284 284 283 283 282 282 281 281 281 281 280 281 281 281 280 278 278 278 277 277 276 276 276 275 275 275 275 275
302 304 305 305 304 302 301 299 298 297 296 295 295 294 293 293 293 293 293 292 292 291 291 291 292 291 291 290 290 290 290 289 289 289 291 293 293 291 289 289 288 288 288 288 288 288 288 287 288 288 288 287 287 286 285 285 285 284 284 284 283 282 282 281 281 281 280 280 281 281 281 279 278 277 277 276 276 276 275 276 275 275 274 275 275
301 302 303 303 303 302 301 300 299 298 297 295 294 294 295 295 294 293 292 292 291 291 291 292 291 291 290 290 290 290 290 289 289 289 291 292 292 290 289 289 288 289 288 288 288 288 288 287 287 287 288 288 287 286 285 285 285 285 284 284 283 283 282 281 281 280 280 280 280 280 280 278 277 277 276 276 276 275 275 275 275 274 274 274 275
300 301 301 302 301 301 300 299 298 298 297 296 296 296 297 297 295 293 292 291 291 291 291 291 291 291 290 289 290 289 289 289 289 289 290 290 290 289 289 289 289 289 288 288 288 288 288 288 287 287 288 287 287 286 285 285 285 285 284 284 283 283 282 281 281 280 280 280 280 280 279 278 277 277 276 276 275 275 275 275 274 274 274 274 274
299 299 299 299 299 299 298 298 298 298 298 298 298 298 297 296 295 293 292 291 291 291 291 291 290 290 289 289 289 289 289 289 288 288 289 289 289 288 288 288 289 289 288 288 288 288 288 288 287 287 287 287 287 286 285 285 284 284 284 284 283 283 283 281 281 280 280 280 280 280 279 278 277 277 276 276 275 275 275 274 274 273 273 274 274
298 298 297 297 297 297 297 298 298 298 298 298 297 297 296 295 294 293 291 291 291 290 290 290 289 289 289 289 289 289 289 288 288 288 288 288 288 288 288 288 288 288 288 288 287 287 287 287 287 287 287 287 286 286 285 285 284 284 284 284 284 284 282 281 281 280 280 280 280 280 279 278 277 277 276 275 275 275 275 274 274 273 273 273 273
299 298 298 298 298 298 298 298 298 297 297 296 295 295 294 293 292 291 291 290 289 289 289 289 289 289 288 288 288 288 288 288 288 288 288 287 287 287 287 287 288 288 287 287 287 287 287 287 287 287 287 286 286 286 285 285 284 284 284 284 284 284 282 281 280 280 280 280 280 280 280 278 277 277 276 275 275 274 274 274 273 273 273 273 273
300 300 299 299 298 298 297 297 296 296 295 294 294 293 292 292 291 290 290 290 289 289 289 288 288 288 288 288 288 288 288 288 288 288 288 287 287 287 287 287 287 287 287 287 287 287 287 287 287 287 286 286 286 285 285 285 284 284 284 284 284 283 282 281 280 280 280 280 280 280 279 278 277 276 275 275 274 274 274 274 273 273 273 273 273
300 299 299 298 297 297 296 296 295 294 294 293 293 292 292 291 291 290 290 290 289 289 289 288 288 288 288 288 288 288 288 288 288 288 288 287 287 287 287 287 287 287 287 287 287 287 287 287 287 286 286 286 285 285 285 285 284 284 284 283 283 283 281 279 279 280 279 279 279 279 278 277 277 276 275 275 274 274 274 273 273 273 273 273 273
298 298 297 297 296 296 296 295 295 294 293 293 292 292 291 291 291 290 290 290 289 289 289 289 289 289 289 289 289 288 288 288 287 287 287 287 287 287 287 287 287 286 287 287 287 287 287 287 287 286 286 286 285 285 284 284 284 284 284 283 283 281 280 279 279 279 279 279 279 278 277 277 276 275 275 274 274 274 273 273 273 273 273 273 272
297 297 297 296 296 296 295 295 294 294 293 293 292 292 292 291 291 291 290 290 290 290 290 290 290 290 289 289 289 289 289 288 288 287 287 287 287 287 287 287 286 286 286 287 287 287 287 287 286 286 286 286 285 285 285 284 284 284 283 283 282 281 280 279 279 279 279 279 278 277 277 276 276 275 275 274 274 273 273 273 273 273 272 272 272
295 295 294 294 294 294 294 294 293 293 293 293 293 292 292 292 292 291 291 291 291 291 291 291 290 290 290 290 291 290 289 289 289 288 287 287 287 286 286 286 286 286 286 286 286 286 286 286 286 286 286 286 285 285 285 284 284 283 283 282 281 281 280 280 280 280 280 279 278 277 277 276 275 275 275 274 274 273 273 273 273 272 272 272 272
292 292 292 292 292 292 292 291 291 291 291 291 291 291 291 291 291 291 291 291 291 291 291 291 291 291 290 291 291 290 290 289 289 289 288 288 287 287 286 286 285 285 285 285 285 285 286 286 285 285 285 285 285 284 284 284 284 283 282 281 281 280 280 280 280 279 279 278 278 277 276 275 275 275 274 274 273 273 272 272 272 272 272 272 272
291 291 291 291 291 291 291 291 291 291 290 290 290 290 290 290 290 290 290 290 290 290 290 290 290 290 290 290 290 289 289 289 289 288 288 287 287 287 286 286 285 285 284 284 284 284 284 284 284 284 284 283 283 283 283 283 283 283 282 281 281 280 280 279 279 279 278 278 277 276 276 275 275 274 274 274 273 272 272 272 272 272 272 271 272
291 291 291 291 291 291 290 290 290 290 290 290 290 290 290 290 290 290 290 290 290 290 290 290 290 289 289 289 289 289 289 289 289 288 288 287 287 286 286 286 285 285 285 284 283 283 283 282 282 283 282 281 281 280 280 280 281 282 282 281 280 280 279 279 279 279 278 277 276 276 275 275 274 274 274 274 273 272 272 272 272 272 272 271 271
291 291 291 291 291 291 291 290 290 290 290 290 290 290 290 290 290 290 290 289 289 289 289 289 289 289 289 289 288 288 289 288 288 288 287 287 287 286 286 286 285 285 284 283 283 283 283 283 283 282 281 280 280 280 279 279 280 280 280 280 279 279 279 279 279 278 277 276 276 275 275 274 274 274 274 274 273 272 271 271 271 271 271 271 271
291 291 291 291 291 291 291 291 291 290 290 290 290 290 290 290 290 290 290 289 289 289 289 289 288 288 288 288 288 288 288 288 287 287 287 286 286 286 286 285 285 284 283 282 282 283 283 282 282 281 280 280 280 280 279 279 279 279 278 278 278 279 279 279 278 277 276 275 275 275 274 274 274 274 274 273 273 272 271 271 271 271 271 271 271
291 291 291 291 291 291 290 290 290 290 290 290 290 290 290 290 290 289 289 289 289 289 289 288 288 288 288 288 288 287 287 287 287 286 286 285 285 284 284 283 282 281 280 280 280 281 282 281 280 280 280 279 279 279 278 278 278 278 278 278 278 279 278 278 277 276 275 275 274 274 274 273 273 273 273 273 272 272 271 271 271 271 271 271 271
290 290 290 290 290 290 290 290 290 290 290 290 290 290 290 290 290 289 289 289 289 289 289 288 288 288 287 287 287 287 287 286 286 285 285 284 284 283 282 282 281 280 279 278 279 280 280 280 279 279 279 278 278 278 277 277 278 278 278 278 278 278 278 277 276 276 275 274 274 274 273 273 273 273 273 272 272 272 271 271 271 271 270 270 270
291 290 290 290 290 290 290 290 290 290 289 289 289 289 289 289 289 289 289 289 289 289 288 288 288 288 287 287 287 286 286 286 285 285 284 283 282 281 281 281 280 279 279 278 278 279 278 278 278 278 278 278 278 278 277 277 277 277 278 278 277 277 277 276 276 275 275 275 274 274 273 273 273 272 272 272 272 272 271 271 270 270 270 270 270
291 291 291 291 290 290 290 290 290 290 290 290 290 290 290 289 289 289 289 289 289 289 288 288 287 287 287 287 286 286 286 285 285 284 284 283 282 280 279 279 279 279 278 278 278 278 278 278 278 278 278 278 278 278 277 277 277 277 277 277 277 277 276 276 276 275 275 274 274 274 273 273 272 272 272 272 272 271 271 270 270 270 270 269 269
291 291 291 291 290 290 290 290 290 290 290 290 290 290 289 289 289 289 289 289 289 288 288 287 287 286 286 286 286 285 285 285 284 284 283 282 281 280 279 278 278 278 278 278 277 277 277 277 277 277 277 277 277 277 277 277 277 277 277 276 276 276 276 276 276 275 274 274 274 273 273 272 272 272 272 272 271 271 270 270 270 270 269 269 269
291 291 291 290 290 290 290 290 290 290 290 290 289 289 289 289 289 288 288 288 288 287 287 287 286 286 285 285 285 285 284 284 284 283 282 282 281 280 279 278 277 277 277 277 277 276 276 277 277 277 277 277 277 276 276 276 276 276 276 275 275 275 275 275 275 274 273 273 273 272 272 272 271 271 271 271 271 271 270 270 270 269 269 269 269
291 290 290 290 290 290 290 290 290 289 289 289 289 288 288 288 288 287 287 287 287 286 286 285 285 285 284 284 284 284 283 283 282 282 281 281 280 279 278 277 277 277 277 277 276 276 276 276 276 276 276 276 276 276 276 275 275 275 274 274 274 274 274 274 273 273 272 272 272 272 271 271 271 270 270 270 270 270 269 269 269 269 269 268 268
290 290 290 289 289 289 289 289 288 288 288 288 288 287 287 287 287 286 286 286 285 285 285 284 284 284 284 283 283 283 282 282 282 282 281 281 280 279 278 277 277 277 276 276 276 276 276 276 276 276 276 276 276 275 275 275 275 274 274 273 273 273 273 272 272 272 271 271 271 271 271 270 270 270 270 270 270 269 269 269 269 269 268 268 268
289 288 288 288 288 288 288 287 287 287 287 287 286 286 286 286 285 285 285 284 284 284 283 283 283 282 282 282 282 282 282 281 281 281 280 280 279 278 277 277 276 276 276 276 276 276 276 275 275 275 275 275 275 275 274 274 274 274 273 273 273 272 272 272 271 271 270 270 270 270 270 270 269 269 269 269 269 269 269 268 268 268 268 268 268
287 287 287 287 287 287 287 287 286 286 286 286 286 285 285 285 284 284 284 283 283 283 282 282 281 281 281 281 280 280 280 280 279 279 278 278 277 277 276 276 276 275 275 275 275 275 275 275 275 275 275 275 274 274 274 273 273 273 272 272 272 271 271 271 270 270 270 269 269 269 269 269 269 269 269 269 269 268 268 268 268 268 268 268 268
287 287 286 286 286 286 286 286 285 285 285 285 285 284 284 284 283 283 283 282 282 282 281 281 280 280 279 279 279 279 278 278 278 277 277 277 276 276 275 275 275 275 275 275 275 275 275 275 274 274 274 274 274 273 273 272 272 271 271 271 270 270 270 269 269 269 269 268 268 268 268 268 268 268 268 268 268 267 268 268 268 268 268 268 267
286 286 285 285 285 285 285 285 284 284 284 284 283 283 283 282 282 282 282 281 281 280 280 279 279 278 278 277 277 277 276 276 276 275 275 275 274 274 274 274 273 273 273 273 273 273 273 273 272 272 272 272 271 271 271 270 270 270 269 269 268 268 268 268 268 267 267 268 268 268 268 268 268 268 267 267 267 267 267 268 267 267 267 267 266
285 285 284 284 284 284 283 283 283 283 283 282 282 282 281 281 281 280 280 279 279 278 278 278 277 276 276 275 275 275 274 274 274 273 273 273 273 273 272 272 272 272 272 271 271 271 271 271 271 270 270 270 269 269 269 269 268 268 268 267 267 267 267 266 266 266 266 266 267 267 267 267 267 267 267 267 267 267 267 267 267 267 267 266 266
284 283 283 283 283 282 282 282 282 281 281 281 280 280 280 279 279 278 278 277 277 277 276 276 276 275 275 274 274 274 273 273 273 272 272 272 272 271 271 271 271 271 271 271 270 270 270 270 270 270 269 269 269 268 268 268 268 267 267 267 266 266 266 265 265 265 265 265 266 266 266 266 266 266 266 266 266 266 267 267 267 266 266 266 265
282 282 282 281 281 281 280 280 280 279 279 279 278 278 278 277 277 277 276 276 276 275 275 275 274 274 274 273 273 273 272 272 272 271 271 271 271 271 271 270 270 270 270 270 269 269 269 269 269 269 269 268 268 268 267 267 267 266 266 266 266 265 265 265 265 265 265 265 265 265 265 265 265 265 265 266 266 266 266 266 266 266 265 265 265
281 280 280 280 279 279 278 278 278 278 277 277 277 277 277 276 276 276 275 275 275 274 274 274 273 273 272 272 272 272 271 271 271 271 270 270 270 270 270 270 270 269 269 269 269 269 268 268 268 268 268 268 267 267 267 267 266 266 266 265 265 265 265 265 265 264 264 264 264 264 264 264 264 265 265 265 265 266 266 266 265 265 265 265 265
279 279 278 278 278 277 277 277 277 277 277 276 276 276 276 275 275 275 274 274 273 273 273 272 272 272 271 271 271 271 271 270 270 270 270 270 269 269 269 269 269 269 269 268 268 268 268 268 268 268 268 267 267 267 267 267 266 266 266 266 265 265 265 264 264 264 264 264 264 264 264 264 264 264 265 265 265 265 265 265 265 265 265 264 264
277 277 277 277 277 277 276 276 276 276 276 275 275 275 274 274 274 273 273 273 272 272 272 271 271 271 271 271 270 270 270 270 270 269 269 269 269 269 269 268 268 268 268 268 268 267 267 267 267 267 267 267 267 267 267 267 266 266 266 266 265 265 265 264 264 264 264 264 264 264 264 264 264 264 265 265 264 264 264 265 264 264 264 264 264
276 276 276 276 276 276 275 275 275 275 274 274 274 274 273 273 272 272 272 271 271 271 271 271 271 270 270 270 270 270 269 269 269 269 268 268 268 268 268 268 268 267 267 267 267 267 267 267 267 267 267 267 267 267 266 266 266 266 266 266 265 265 265 265 264 264 264 264 264 264 264 264 264 264 264 264 264 264 264 264 264 264 264 264 264
276 276 275 275 275 275 274 274 274 273 273 273 273 272 272 272 271 271 271 271 270 270 270 270 270 270 270 269 269 269 269 269 268 268 268 268 267 267 267 267 267 267 267 267 267 267 267 267 267 267 267 267 267 267 267 266 266 266 266 265 265 265 265 265 264 264 264 264 264 264 264 264 264 264 264 264 264 264 264 264 264 264 264 264 264
Wind_Speed
41 40 39 39 39 38 39 40 41 41 40 39 37 36 35 33 31 29 28 27 25 24 22 20 18 17 16 15 14 13 13 13 12 12 11 10 10 10 10 9 8 8 8 8 8 9 9 9 10 10 11 12 12 13 13 14 15 15 15 15 15 16 17 19 22 25 23 23 23 24 25 28 28 29 31 33 34 36 37 39 40 41 42 42 42
43 41 40 40 39 39 40 41 42 42 41 40 39 37 36 34 32 30 29 28 26 24 22 21 20 18 17 16 16 15 14 14 13 12 11 11 11 10 10 10 10 10 10 9 9 10 10 10 11 11 12 13 13 14 15 15 16 17 16 16 16 16 18 19 21 25 26 25 24 24 25 27 28 29 31 33 35 37 38 40 40 41 42 42 43
42 41 40 40 39 40 41 43 43 43 42 41 40 39 37 35 33 31 30 28 26 25 23 22 21 20 19 18 17 16 15 14 13 13 12 11 11 11 11 11 11 11 11 11 10 10 11 11 11 12 13 14 15 15 16 17 18 18 18 17 17 17 18 20 21 24 27 27 26 26 26 27 29 30 31 33 35 37 39 40 40 41 42 43 44
42 41 41 40 40 41 43 44 44 44 44 43 42 40 38 36 34 32 31 29 28 26 25 24 23 22 21 19 18 17 16 15 15 14 13 12 11 12 12 12 13 13 12 12 11 11 12 12 12 13 14 15 16 16 17 18 19 19 19 18 18 18 19 20 22 24 26 28 27 26 27 28 29 30 31 33 35 37 38 40 41 42 43 43 44
43 43 42 41 41 43 45 46 46 45 45 45 43 41 39 37 35 34 32 31 29 28 27 26 25 23 22 20 18 18 17 17 16 15 14 13 13 13 13 14 14 14 13 13 12 12 13 13 13 14 15 16 17 18 19 20 20 20 20 20 19 20 20 21 22 24 25 27 28 27 27 28 29 30 31 33 35 37 38 39 41 43 43 43 43
45 44 44 43 43 44 46 48 48 47 46 46 44 42 40 38 37 35 33 32 31 30 29 27 26 24 22 20 20 19 19 19 17 16 15 15 14 14 15 15 16 15 14 14 14 14 14 14 14 15 16 17 18 19 20 21 21 21 21 21 21 21 22 22 23 25 26 27 28 28 28 29 30 30 31 33 35 37 38 39 40 41 42 43 43
47 46 45 45 44 45 47 49 49 49 48 46 45 43 41 39 37 36 34 33 32 31 29 28 26 24 23 22 22 22 21 20 19 18 17 16 15 15 16 17 17 16 15 15 15 15 15 15 15 15 16 17 19 20 21 22 22 22 22 22 23 23 23 23 24 25 26 27 28 28 29 29 30 31 31 32 34 35 36 39 40 41 41 42 43
48 48 47 47 46 46 47 48 49 49 49 47 45 44 42 40 38 36 35 34 33 32 30 28 26 25 24 24 24 24 23 22 21 19 18 17 17 17 18 18 18 17 16 16 16 16 15 16 16 16 17 18 19 21 22 23 23 22 23 23 24 24 24 24 25 26 27 28 28 28 29 30 30 30 31 32 34 34 35 36 39 40 41 41 42
49 49 49 48 47 46 47 48 48 49 50 48 46 45 43 41 39 37 36 35 34 33 31 29 28 27 26 26 26 26 25 24 22 19 18 18 19 20 19 19 18 18 17 17 17 16 16 16 16 16 17 18 20 22 23 23 24 23 23 24 25 25 25 25 26 26 27 28 28 28 29 30 30 30 31 32 33 34 34 35 37 39 40 41 41
51 50 50 49 47 46 47 47 48 49 50 48 47 45 43 42 40 39 38 37 35 34 33 31 30 29 28 28 29 28 27 25 22 20 19 20 21 21 20 20 20 19 18 18 17 17 16 16 16 16 17 18 20 22 23 24 24 24 24 25 25 25 26 26 26 27 27 28 28 28 29 30 29 29 30 32 32 33 34 35 36 37 38 41 42
51 51 50 48 47 46 47 47 47 49 50 48 47 46 44 43 42 40 39 38 37 36 35 33 32 31 31 31 30 29 28 25 23 21 21 22 23 22 21 21 21 20 19 19 18 17 17 16 16 16 17 18 19 21 23 24 25 25 25 26 26 26 26 27 27 27 28 29 29 28 29 29 28 28 29 31 32 32 32 33 34 36 37 39 42
51 51 49 47 46 46 46 47 47 48 49 48 47 46 45 44 43 41 40 39 38 38 37 35 34 33 34 33 32 31 29 26 24 23 23 24 24 24 23 24 23 21 20 19 18 18 17 16 16 16 16 17 19 21 22 23 24 25 26 27 27 27 28 28 28 28 28 29 29 28 28 28 28 28 28 30 31 31 31 31 32 34 35 36 39
49 49 48 47 46 46 46 47 47 47 48 47 46 46 46 45 44 41 41 40 40 39 38 37 36 36 36 35 34 32 30 27 26 25 25 25 26 26 26 26 25 23 21 20 19 19 18 17 17 16 16 17 18 20 21 22 23 25 26 27 28 28 28 29 29 29 28 29 29 29 27 27 27 27 27 28 30 31 31 31 31 32 34 34 36
48 48 47 46 46 45 46 47 46 47 47 47 46 46 46 45 43 42 42 42 42 41 40 40 39 38 38 37 35 34 31 29 28 27 27 27 28 28 28 28 27 25 22 21 21 20 19 18 18 17 17 17 17 19 20 21 23 25 26 28 28 28 29 29 29 29 28 29 29 28 26 25 26 27 26 26 28 29 30 31 31 32 33 34 35
46 46 46 45 44 45 46 46 46 46 46 46 46 46 46 44 43 43 44 44 44 43 42 42 41 41 40 38 37 35 33 31 30 29 29 29 29 29 30 31 29 26 24 23 23 22 20 19 19 19 18 18 18 19 20 21 23 25 27 28 29 29 30 31 30 29 29 30 29 28 26 25 24 25 25 25 27 28 29 30 30 31 33 34 34
44 44 44 44 44 45 45 44 44 44 44 45 45 45 44 43 44 45 45 45 45 45 44 44 43 42 41 40 39 37 35 34 32 31 30 30 30 30 32 33 31 29 27 26 25 24 23 22 22 21 21 21 20 21 21 22 24 26 27 28 29 30 31 31 31 30 30 31 29 28 27 25 24 23 23 24 26 27 29 30 28 29 32 34 34
40 40 40 40 41 41 41 42 42 42 43 44 44 43 43 44 45 46 46 46 46 46 46 46 45 44 43 42 41 39 37 36 35 34 33 33 32 33 34 34 33 32 31 29 27 26 25 25 24 24 24 24 24 23 23 24 26 27 28 29 30 31 32 32 31 31 31 30 28 27 26 24 24 23 22 23 24 26 29 29 27 28 31 33 35
34 35 35 35 35 36 38 39 39 40 40 41 42 42 43 44 44 45 46 47 47 47 47 47 47 47 45 44 42 40 39 37 37 36 36 36 36 36 36 35 35 35 34 31 30 29 28 28 28 28 28 28 27 25 25 26 28 29 29 30 31 32 32 32 32 31 31 31 28 27 26 24 24 23 22 22 23 25 27 28 26 27 30 31 33
26 27 27 28 29 31 32 33 34 35 36 37 39 41 42 42 43 44 45 47 47 48 49 49 49 48 46 44 43 42 40 39 39 39 38 38 39 39 39 37 37 38 37 34 32 32 31 31 30 30 31 31 30 28 28 28 29 30 30 31 32 33 32 32 32 32 32 32 30 28 26 23 23 23 22 21 22 24 25 25 25 26 29 30 30
17 19 20 22 24 25 26 27 28 29 30 30 32 34 37 39 42 43 45 46 48 49 50 50 49 48 46 45 44 44 43 42 41 41 40 40 41 41 41 41 40 40 39 37 36 35 34 33 33 33 33 33 33 32 30 30 31 31 32 33 34 33 31 32 33 33 34 34 32 30 27 24 23 24 22 21 21 23 24 24 24 25 27 29 29
12 14 15 17 18 19 20 21 21 22 22 24 26 29 32 35 38 40 42 44 46 48 49 49 49 48 47 47 46 45 45 44 43 43 42 42 43 43 44 44 43 42 42 41 40 39 38 37 36 35 35 35 35 35 34 33 32 33 34 35 34 32 31 33 34 34 35 35 33 31 28 25 24 24 23 22 21 22 23 24 24 25 26 28 29
9 10 11 12 13 13 14 15 16 17 19 21 23 26 27 29 32 33 36 38 41 43 45 46 47 48 48 48 48 47 46 46 45 45 45 45 45 45 46 47 46 45 45 45 44 44 43 41 40 39 37 36 36 36 37 36 36 37 37 35 34 32 32 33 34 35 35 35 34 32 28 25 25 25 23 23 22 22 23 23 24 25 26 26 27
9 9 10 11 11 11 12 12 13 14 16 17 19 21 22 24 26 28 30 32 35 37 38 40 42 43 44 45 46 46 47 47 48 48 47 47 47 47 49 49 48 48 49 49 49 49 48 46 45 43 41 39 38 38 39 39 40 40 39 37 35 33 30 32 34 35 36 36 35 33 29 26 26 26 25 24 23 22 23 23 24 25 26 26 26
11 11 11 11 11 11 11 11 12 13 13 15 16 18 19 21 23 24 26 28 30 31 32 33 35 36 38 38 39 40 42 44 46 48 49 49 49 50 50 50 50 51 52 53 53 52 52 51 49 48 46 44 41 40 40 41 42 43 41 39 36 32 30 32 35 37 38 37 35 33 30 27 26 27 26 25 24 23 23 24 25 26 27 27 27
10 10 11 10 10 11 11 11 11 12 12 13 15 16 17 18 20 21 23 24 26 27 28 29 31 32 33 34 35 35 37 38 40 42 45 47 49 51 51 52 52 53 55 56 57 56 56 55 54 52 50 49 47 45 45 45 45 44 43 40 37 34 33 35 37 38 38 37 34 33 32 29 27 27 28 27 25 24 23 24 25 26 26 28 28
8 8 9 8 9 9 9 9 9 9 10 11 12 12 13 15 16 18 20 21 23 24 25 27 28 30 31 32 32 32 33 35 36 38 39 42 44 46 47 49 51 53 56 58 59 59 59 58 57 56 55 54 52 50 49 48 47 45 44 41 38 36 36 37 38 38 37 36 35 35 33 30 28 29 29 28 26 24 24 26 27 26 26 28 30
7 7 7 6 6 6 6 6 6 6 7 8 9 10 11 13 15 16 18 19 20 22 24 25 27 28 29 29 30 31 32 33 35 35 36 37 37 38 40 42 44 48 51 55 57 58 60 60 60 60 59 58 56 53 52 50 49 47 44 40 38 38 38 37 37 37 37 36 36 35 33 31 30 30 29 29 27 24 25 27 29 28 27 28 31
5 4 4 4 4 4 4 4 5 6 7 8 9 10 12 13 15 16 17 19 20 22 23 25 26 27 28 29 30 31 32 33 34 34 34 35 35 35 36 36 37 39 41 44 46 49 52 55 58 59 59 59 58 56 53 51 50 48 44 40 38 37 36 35 36 37 37 36 36 35 34 33 32 31 30 29 27 25 26 28 29 29 29 30 31
4 4 4 4 5 5 6 6 7 8 9 10 11 12 13 15 17 18 18 20 21 22 24 25 26 27 28 30 31 33 33 33 33 34 35 36 36 36 36 36 35 35 36 35 35 38 42 46 49 53 55 55 54 53 50 49 48 46 44 41 38 36 34 35 36 36 36 35 35 35 35 35 34 32 31 30 28 26 26 28 29 29 30 30 31
7 7 7 7 8 8 9 9 10 11 11 12 13 14 15 16 18 19 19 20 22 23 24 26 26 28 29 30 32 33 34 34 35 36 37 38 38 38 38 37 36 35 34 32 32 36 39 42 45 47 48 49 49 49 49 48 47 45 43 40 38 36 35 36 36 35 35 36 36 35 35 36 35 33 31 31 29 27 27 28 29 29 30 31 32
10 10 11 11 12 12 12 13 13 13 14 14 15 16 17 18 19 20 21 22 22 23 25 26 27 28 30 31 32 33 34 34 35 36 37 38 39 39 39 39 37 35 31 29 31 35 38 40 43 43 43 45 47 48 47 46 46 44 41 39 37 37 37 37 36 35 35 36 36 36 36 36 35 33 31 30 30 29 28 28 28 29 30 31 32
12 13 13 14 14 14 14 15 15 15 16 17 18 19 19 20 20 21 22 24 25 25 25 26 27 28 30 31 32 33 33 34 34 35 35 36 36 36 35 34 33 31 26 23 28 34 36 36 38 39 39 41 44 45 44 44 44 43 40 39 39 38 38 37 35 34 35 35 35 36 36 35 34 33 31 30 30 30 30 28 28 29 29 30 31
13 13 14 14 15 15 16 16 16 17 17 18 19 20 21 22 22 22 22 23 25 26 27 27 28 29 30 30 31 32 32 33 33 33 33 33 32 32 32 31 29 26 22 23 28 32 34 34 34 34 36 38 40 41 42 42 42 41 40 40 39 38 36 33 30 30 30 31 32 33 33 32 32 32 32 31 31 31 31 30 28 29 29 30 31
10 11 12 13 14 15 16 16 17 18 18 19 20 20 21 22 23 24 24 24 25 26 27 28 29 30 30 30 30 31 31 32 32 32 31 31 30 28 29 30 29 25 22 23 27 30 32 34 33 31 31 33 35 36 37 37 37 38 38 36 35 33 31 29 28 28 28 28 29 31 31 31 32 32 32 32 32 32 32 30 29 29 29 30 30
9 10 11 12 13 14 15 16 17 18 19 19 20 21 22 23 24 25 26 26 27 27 27 27 28 29 30 30 30 30 30 30 31 31 31 30 28 26 25 27 29 27 24 22 24 27 30 32 33 33 31 31 31 32 33 33 33 33 33 31 29 28 28 28 29 29 29 29 30 31 31 32 33 33 33 33 33 33 32 30 29 29 30 30 30
11 12 12 13 14 15 16 17 17 18 19 20 21 22 23 24 25 26 27 27 28 28 28 27 26 26 27 28 28 29 28 28 29 29 29 28 27 26 24 25 28 29 27 24 22 23 26 29 31 33 33 32 31 30 31 31 32 32 31 31 29 28 29 30 30 30 30 30 31 31 32 34 34 34 33 34 33 33 31 29 28 29 30 29 30
12 13 14 15 15 16 17 18 19 20 20 21 22 23 24 24 25 26 26 26 26 27 27 26 26 24 23 23 24 25 26 26 26 27 27 26 26 24 23 24 25 27 27 25 23 22 23 26 28 30 31 30 29 29 29 29 30 30 30 30 30 30 30 29 29 30 30 30 31 32 34 35 35 33 32 33 33 32 31 29 28 29 29 29 29
13 14 15 16 17 17 18 19 20 20 21 21 22 22 23 23 23 24 24 24 24 24 24 24 23 22 21 21 21 22 23 22 22 23 23 24 24 23 22 23 24 26 27 27 26 25 26 27 29 31 32 32 32 32 32 31 31 30 29 29 29 29 28 28 29 30 31 31 32 33 34 35 34 31 30 31 32 31 30 28 28 29 29 29 28
14 14 15 16 16 17 17 18 18 19 19 20 20 20 20 20 21 21 21 22 22 22 22 21 20 21 21 21 21 21 21 20 20 21 21 22 22 23 22 23 24 26 27 28 28 28 28 29 30 31 32 33 33 33 34 33 33 32 31 30 30 30 29 29 30 32 32 32 33 34 34 33 32 30 29 30 31 31 29 28 27 29 30 29 28
13 13 14 14 15 15 16 16 16 17 17 17 17 17 17 17 18 19 20 21 21 21 21 21 21 21 21 21 21 22 22 22 22 21 22 21 21 21 22 23 25 27 29 30 30 30 30 31 31 32 33 33 34 34 34 35 35 36 35 35 35 35 34 34 34 34 34 35 35 34 33 33 32 30 30 31 31 30 29 28 27 28 29 29 28
12 12 12 13 14 14 15 15 15 16 16 16 15 15 16 17 18 19 20 21 21 21 22 22 21 21 20 21 22 23 24 24 23 21 21 21 20 20 21 22 24 26 28 30 32 33 34 34 35 35 36 36 37 38 38 38 38 38 38 38 38 38 38 38 37 37 36 36 35 35 34 33 32 31 30 30 30 29 28 28 28 28 28 28 27
11 11 12 12 13 13 14 14 15 15 15 15 15 16 17 18 19 20 21 21 21 21 22 22 21 21 21 21 22 23 23 23 23 22 22 21 21 21 21 22 23 25 26 28 30 32 33 35 36 36 37 37 37 38 38 38 37 37 37 37 37 37 38 38 37 36 36 36 35 35 34 33 31 30 29 29 28 28 27 27 28 27 27 27 27
10 10 11 11 12 12 13 13 14 14 15 16 16 17 18 19 20 20 20 21 21 21 21 22 21 21 21 22 22 23 23 23 24 24 24 23 23 23 23 23 23 24 25 26 27 29 30 31 31 32 32 33 33 33 33 33 34 34 34 34 34 34 34 34 34 34 34 34 34 34 33 31 30 28 28 28 27 26 26 27 27 27 26 26 26
9 10 10 11 11 12 13 13 14 15 15 16 17 18 18 19 19 19 20 20 20 21 21 21 21 21 21 22 22 23 23 23 24 24 24 24 23 23 23 23 22 22 22 23 24 25 26 26 27 26 26 26 26 27 27 27 28 29 29 30 31 31 31 31 31 31 31 31 32 31 31 30 28 28 28 28 26 26 26 27 26 26 25 25 25
9 10 10 11 12 12 13 14 14 15 16 16 17 17 18 18 18 18 19 19 19 20 20 21 21 21 21 22 22 22 22 22 22 22 22 22 21 21 21 21 21 21 21 21 21 22 23 23 23 23 22 21 21 21 22 22 22 23 24 26 27 28 29 29 29 28 29 29 30 29 28 27 27 27 27 26 26 26 26 26 25 25 25 24 24
10 10 11 11 12 12 13 13 14 14 15 15 16 17 17 17 18 18 19 19 19 20 20 21 21 21 21 21 21 21 21 20 20 20 20 20 20 20 21 20 20 20 19 19 20 20 20 20 20 20 20 19 18 18 18 19 19 20 21 22 23 25 25 26 26 26 26 27 27 27 27 26 26 25 25 25 25 25 25 25 24 24 24 23 23
10 10 10 11 11 12 12 13 14 14 15 16 16 17 18 18 19 19 19 20 20 20 20 20 20 20 20 20 20 20 20 19 19 19 19 19 20 20 20 20 19 19 19 18 19 19 19 19 19 19 19 19 19 18 18 18 19 19 20 20 21 22 23 23 24 24 24 24 24 24 24 24 24 24 24 24 24 24 24 23 23 23 22 22 21
10 10 11 11 12 12 13 14 14 15 16 16 17 18 18 19 19 19 20 20 20 20 20 20 20 20 19 19 19 19 19 19 19 19 19 19 19 19 19 19 19 18 18 18 18 19 19 19 19 20 20 20 20 19 19 19 19 20 20 20 21 22 22 22 23 23 22 21 21 21 21 22 22 22 22 23 23 23 22 22 21 21 21 20 20
10 11 11 12 13 13 14 15 15 16 17 17 18 19 19 19 20 20 20 19 19 19 19 19 19 19 19 19 19 19 19 19 18 18 18 18 19 19 19 19 18 18 18 18 18 18 19 19 19 20 20 20 20 20 19 19 19 19 19 20 20 21 21 21 22 21 21 21 20 20 20 20 21 21 21 22 22 21 21 21 20 20 20 19 19
11 12 12 13 14 14 15 15 16 17 17 18 19 19 19 19 20 20 19 19 19 19 19 19 19 18 19 19 19 19 19 19 19 19 19 19 19 19 19 19 18 18 18 17 17 17 17 18 19 19 20 20 20 20 20 19 19 19 19 19 19 19 20 20 20 20 20 20 20 20 20 20 20 20 20 20 20 19 19 19 19 19 18 18 18
12 13 13 14 15 15 16 17 17 17 18 18 19 19 19 19 19 19 19 19 19 18 18 18 18 18 19 19 19 19 19 19 19 19 19 19 20 20 19 19 18 17 17 17 16 16 17 17 18 18 19 20 20 20 20 19 19 19 18 18 18 18 18 18 18 19 19 19 19 20 19 19 19 19 18 18 18 18 18 18 18 18 18 18 18
Wind_Direction
216 218 218 217 214 210 206 203 203 205 206 206 206 204 202 202 201 200 200 200 199 197 196 196 197 197 197 199 201 204 209 213 215 215 215 217 219 225 232 235 239 243 247 252 255 260 265 268 273 277 280 282 284 286 288 290 291 291 292 296 302 307 311 313 312 313 318 321 324 328 329 329 332 333 333 333 334 334 334 334 334 334 335 335 335
217 217 218 216 213 209 206 204 204 206 207 207 207 206 205 203 202 202 202 201 201 198 198 199 199 199 199 202 204 205 209 213 215 218 220 221 223 230 234 237 243 247 249 251 253 256 260 265 270 274 277 280 282 284 286 287 287 287 288 292 298 303 306 309 309 310 313 317 321 325 326 327 329 331 332 331 331 332 332 333 333 335 336 336 336
218 218 219 217 213 210 208 206 206 207 208 208 208 207 206 205 204 205 204 202 201 199 200 203 203 202 203 204 205 207 211 214 217 221 222 222 229 238 241 243 247 249 249 251 252 256 260 264 268 272 275 277 280 283 283 284 283 284 287 290 295 299 302 304 306 307 310 313 318 322 324 325 327 329 330 330 330 331 332 333 334 335 337 338 338
219 220 220 218 215 212 210 209 209 210 210 210 209 208 207 207 206 206 205 204 203 202 203 205 205 205 206 206 207 210 213 217 220 222 223 226 233 241 246 250 252 250 248 250 254 258 262 265 268 270 274 276 280 281 281 281 282 283 286 289 292 296 298 301 302 304 307 310 315 319 321 323 325 327 328 329 330 331 331 333 334 336 339 339 339
219 221 221 219 218 215 212 211 211 211 212 212 211 209 208 208 208 207 206 205 205 206 207 208 208 208 209 209 211 214 217 220 222 224 227 230 233 241 250 256 255 251 249 251 256 259 262 265 268 270 274 277 279 280 280 281 281 283 285 288 291 293 296 298 300 301 304 307 311 315 318 321 323 325 327 328 329 330 332 334 335 337 339 339 339
220 222 222 221 219 217 215 213 213 213 214 213 212 211 210 210 210 209 208 207 208 210 212 212 211 210 212 213 215 218 220 222 223 225 228 231 236 245 253 257 255 252 251 254 257 260 262 265 267 271 275 277 279 281 281 281 282 284 286 288 290 291 294 296 298 300 303 305 308 312 316 320 322 324 327 329 329 330 331 333 335 337 338 337 337
222 223 223 223 221 219 217 216 215 214 215 215 214 212 212 212 212 211 210 210 211 214 216 215 214 214 215 217 219 220 222 223 225 226 228 232 240 249 254 257 256 253 253 256 258 260 263 265 269 273 276 278 280 282 283 283 283 285 286 287 288 290 292 294 296 298 301 303 307 311 314 317 319 323 327 328 329 330 332 333 334 336 337 336 337
223 223 225 225 223 221 219 219 218 217 217 217 215 214 214 214 214 213 213 213 215 218 219 218 217 217 218 220 222 224 225 226 226 228 231 235 245 252 254 255 255 254 254 257 258 261 264 266 269 274 276 280 282 283 284 284 284 285 286 287 287 288 290 292 294 297 299 301 305 309 311 314 318 322 325 327 328 330 332 331 331 334 336 336 337
224 225 226 227 225 223 221 221 220 219 218 218 217 216 216 216 216 216 216 217 219 220 221 221 221 222 223 224 225 227 229 228 227 230 234 241 251 255 253 254 256 255 255 258 260 263 267 268 270 274 278 282 284 285 285 284 284 285 286 286 286 287 289 290 292 295 297 299 303 306 308 312 318 322 324 326 327 328 329 329 329 333 334 333 335
225 225 227 228 227 225 224 223 222 220 219 219 219 218 218 218 218 218 218 220 222 223 223 223 224 226 228 229 229 230 231 230 230 232 236 246 254 254 252 256 258 256 256 258 262 266 268 269 270 274 280 285 287 287 286 285 285 285 285 285 285 286 287 289 291 293 295 297 301 303 306 311 318 320 321 323 324 324 326 327 329 331 332 331 332
225 226 228 229 229 228 226 224 223 221 220 220 220 220 220 221 221 221 221 223 224 225 226 226 227 229 231 232 233 234 234 233 231 234 240 248 252 251 255 259 258 256 257 258 262 267 269 269 272 277 283 287 288 287 286 285 285 285 284 284 284 285 286 287 289 291 292 295 298 301 305 311 315 317 319 320 320 322 324 325 327 328 330 330 329
226 227 228 229 230 229 228 226 225 223 222 222 222 222 223 224 224 223 224 226 227 228 229 230 231 232 233 234 235 236 236 233 232 237 244 248 250 253 258 259 256 255 257 258 262 266 267 269 273 279 285 288 288 287 285 285 285 284 284 284 285 286 286 287 289 289 291 294 297 299 303 309 312 313 316 317 317 319 320 322 323 324 326 327 325
227 227 228 229 230 230 229 227 226 224 224 224 224 224 225 226 227 227 229 230 230 231 233 234 235 236 237 237 237 237 235 233 234 239 244 246 251 257 259 257 255 254 255 258 262 264 265 268 272 279 283 285 286 286 285 284 283 282 282 282 282 283 284 285 286 287 289 292 294 296 301 306 307 309 311 312 313 316 318 319 321 321 322 324 323
227 227 228 229 230 230 229 229 227 226 226 226 226 226 227 228 230 232 233 233 234 235 236 237 238 239 240 240 240 239 237 234 236 239 243 250 257 260 258 255 253 252 254 258 261 261 262 265 270 275 278 280 283 284 284 282 280 279 279 279 280 281 281 282 282 283 286 287 288 291 297 301 302 303 306 308 310 313 315 316 318 319 320 320 321
228 228 228 229 230 230 230 229 229 228 228 228 229 229 229 230 233 236 237 236 237 238 239 240 242 243 243 242 242 241 239 236 236 238 245 257 263 260 256 254 252 253 255 258 260 260 259 261 266 271 272 275 278 279 279 279 277 276 276 276 278 278 279 279 280 282 284 283 283 287 293 297 298 300 303 306 308 309 309 310 313 315 316 317 319
229 228 228 229 230 231 231 231 232 232 231 231 232 231 232 234 237 239 239 239 240 240 241 243 245 246 245 244 244 244 242 238 236 239 249 261 265 259 254 253 253 255 257 258 259 259 258 259 262 266 269 271 273 273 274 274 273 273 274 275 276 277 277 278 279 280 282 283 284 288 293 296 297 296 296 299 303 304 303 305 310 312 312 315 318
232 231 232 232 233 234 235 235 235 235 235 235 235 235 237 240 241 241 241 241 242 243 244 246 248 248 246 245 246 246 244 239 237 240 250 259 261 257 255 254 256 259 259 258 259 259 259 259 260 262 266 268 269 270 270 271 272 272 273 274 275 276 276 276 277 279 280 281 282 286 289 290 290 289 289 291 294 296 297 302 309 311 311 313 317
235 236 237 237 238 239 240 240 239 239 239 240 241 243 246 247 246 244 243 244 245 247 249 250 250 248 246 246 247 248 246 243 241 243 249 254 255 254 255 256 259 261 259 257 259 260 260 261 260 261 265 268 268 268 268 270 272 273 274 275 274 274 275 276 277 278 278 278 279 281 284 285 285 286 287 287 289 290 294 301 307 309 308 311 314
240 241 242 242 242 242 242 242 243 244 246 248 250 253 254 253 250 248 247 247 248 250 250 250 250 249 248 248 249 249 248 246 244 245 248 251 252 252 253 256 260 263 260 258 259 261 262 262 262 263 265 266 266 267 268 269 271 273 275 275 275 275 277 277 279 279 278 277 278 280 281 282 282 283 285 286 287 289 293 298 303 305 305 308 313
242 242 243 242 242 243 244 247 250 253 258 260 261 262 260 258 255 252 250 249 250 250 251 251 251 250 250 251 251 251 251 250 248 247 249 251 252 252 253 256 261 263 263 261 262 263 264 264 264 265 266 266 266 267 268 268 270 272 273 273 276 279 280 279 279 279 279 278 278 279 280 282 283 284 286 287 287 288 291 295 299 301 302 305 310
236 239 242 243 246 249 252 256 260 263 265 267 266 265 263 261 259 256 254 253 252 252 253 253 253 254 253 253 253 253 253 253 252 251 250 250 251 253 255 258 262 264 264 264 265 265 266 267 267 267 266 266 267 268 268 268 269 270 271 274 277 280 279 278 278 278 278 278 278 278 280 283 285 286 287 286 286 286 289 293 296 297 299 303 307
245 246 247 247 249 251 253 255 258 260 261 262 263 263 263 262 260 259 257 256 256 256 257 257 257 258 258 257 257 257 257 257 256 255 253 252 252 254 257 261 263 264 265 266 267 268 269 269 269 269 267 267 267 268 269 270 269 269 271 273 276 277 276 276 277 277 277 278 279 279 281 284 286 286 286 286 285 286 288 290 292 294 295 299 303
233 230 229 230 232 236 241 245 249 251 254 256 258 259 259 259 259 259 259 259 259 259 260 261 261 262 263 262 262 262 262 261 260 259 257 256 255 256 258 261 263 264 265 267 269 270 271 271 270 270 269 268 267 267 268 269 269 270 271 272 274 275 272 270 271 273 275 277 278 279 281 283 284 284 285 284 283 284 286 288 290 291 292 295 298
210 210 213 216 220 224 228 231 234 239 243 247 251 253 255 256 258 259 260 260 261 262 263 264 265 265 266 266 266 265 265 265 264 263 262 261 259 258 258 259 261 263 265 268 270 270 271 271 271 270 270 269 267 266 266 267 267 268 270 271 272 270 264 262 266 269 272 275 277 279 281 281 282 284 283 282 282 283 284 286 287 288 290 293 296
196 199 203 208 211 216 219 222 227 232 236 242 246 249 253 256 257 259 261 262 263 265 265 266 266 267 268 268 268 268 268 268 267 266 266 265 264 262 260 259 260 262 264 268 271 271 271 272 272 272 271 270 268 266 265 265 266 267 268 268 268 265 260 260 263 266 270 275 277 278 280 281 281 281 282 282 282 283 285 285 285 286 289 291 294
183 188 196 202 207 214 219 223 228 233 238 245 250 253 257 260 261 262 263 264 265 266 267 268 269 269 271 272 273 274 275 274 273 272 271 271 270 269 267 265 263 262 263 266 269 271 273 274 274 274 273 272 271 269 267 266 266 266 265 264 263 261 260 260 263 268 272 275 276 277 279 280 280 280 281 282 283 284 286 286 285 286 288 290 291
176 183 191 199 207 218 227 234 242 251 255 260 265 266 267 268 268 269 270 272 274 275 276 277 277 278 280 281 283 283 282 280 280 280 280 280 279 278 276 273 270 266 264 264 266 268 271 274 275 275 276 275 274 272 269 267 265 264 263 262 259 258 258 260 264 269 272 274 275 277 280 280 280 280 280 280 282 285 286 287 287 289 290 291 292
170 176 187 199 213 225 235 242 252 260 265 267 269 270 271 273 274 276 278 280 281 281 282 282 282 283 284 285 284 283 281 280 281 283 284 284 282 280 277 275 273 270 268 267 267 267 269 271 272 273 274 274 274 273 270 268 266 266 265 263 258 256 256 259 263 266 269 272 276 279 281 281 280 279 279 280 282 285 285 285 287 290 292 293 295
176 189 200 211 223 227 232 241 248 253 258 263 265 268 271 273 275 277 279 280 280 281 281 281 281 282 282 282 282 282 281 281 284 285 283 282 281 280 278 276 275 273 271 271 271 268 266 265 266 267 268 269 269 270 270 269 269 269 269 266 262 259 259 262 264 267 270 273 276 279 281 281 280 278 278 279 282 284 285 285 287 289 291 293 295
196 206 213 219 227 231 234 240 246 250 254 259 263 267 271 273 276 278 279 279 280 281 281 281 282 282 281 281 281 281 281 282 283 282 282 282 282 281 280 279 277 275 273 272 270 266 264 263 263 263 263 264 265 267 268 270 270 270 269 268 267 267 268 268 269 270 271 273 275 278 280 280 279 278 277 279 282 283 284 285 286 288 291 293 295
219 223 227 231 235 239 243 246 251 256 261 265 269 272 274 276 278 280 282 282 281 281 281 281 281 280 280 280 280 280 280 280 280 281 281 282 282 282 283 283 282 281 278 274 268 265 263 262 262 263 263 263 265 265 265 266 268 269 269 270 272 273 273 272 271 272 272 273 275 277 278 278 278 278 278 279 281 283 283 283 285 287 290 292 294
240 243 246 249 251 255 257 260 264 268 271 274 277 278 279 279 280 281 283 284 284 284 283 282 281 280 280 280 280 280 280 280 280 279 279 279 280 281 282 283 284 284 282 274 269 268 267 264 263 265 264 264 263 262 261 263 266 269 271 272 275 276 275 274 275 274 273 273 273 274 275 276 278 279 279 280 281 282 282 283 284 285 288 290 292
254 257 258 260 262 264 265 268 270 273 276 278 279 280 281 281 281 281 281 281 282 283 283 282 281 280 279 278 278 279 280 280 280 280 280 281 282 282 283 283 282 280 275 267 266 269 270 269 269 268 266 266 265 263 263 265 268 271 273 275 276 277 276 274 272 270 270 272 273 273 274 278 281 282 281 280 280 281 281 283 284 285 287 288 291
262 264 265 266 266 268 269 271 273 275 277 278 279 281 282 283 283 284 283 281 280 280 280 280 280 280 280 280 280 280 281 281 281 282 282 282 282 283 286 287 286 281 272 264 265 268 271 273 274 274 272 272 272 272 271 272 273 274 276 277 278 278 276 271 267 268 272 277 278 278 279 283 285 285 283 280 279 278 279 281 283 284 286 288 291
271 272 273 273 272 273 275 276 278 281 282 283 285 286 286 286 286 286 285 285 284 283 282 282 283 284 285 285 285 284 284 283 283 282 282 280 278 276 276 279 282 281 277 269 267 266 268 271 275 278 279 279 279 279 279 280 280 280 281 282 283 281 277 274 271 271 274 280 282 282 282 283 285 286 284 280 277 276 277 279 281 283 285 288 290
282 282 283 284 284 286 287 288 289 290 290 291 291 291 290 290 290 289 289 290 290 290 289 288 287 286 286 286 286 286 286 285 284 283 282 280 277 272 267 267 272 277 279 278 275 270 267 268 272 276 279 281 280 280 281 281 282 283 284 285 285 282 279 277 273 271 272 277 282 282 280 280 283 285 283 278 275 275 275 277 279 281 283 286 289
286 288 289 291 292 293 294 295 295 295 295 294 293 292 291 291 291 291 292 292 292 292 292 291 289 287 285 284 285 286 286 285 285 285 284 282 279 274 266 260 262 267 270 270 271 270 267 265 265 268 272 275 277 278 279 280 281 281 282 282 282 281 279 276 271 268 270 275 278 278 277 278 281 282 279 275 273 273 274 275 277 279 281 284 287
287 289 291 292 292 293 293 293 292 291 291 291 290 290 290 290 290 291 292 292 292 291 290 289 288 287 287 287 287 287 287 286 285 285 286 284 281 276 266 255 253 258 262 261 262 263 262 260 260 261 263 266 269 271 273 275 275 276 276 276 276 275 274 270 268 269 272 275 276 277 278 278 279 278 275 272 271 271 272 274 276 278 280 283 286
286 288 289 288 289 289 288 288 289 288 289 290 290 290 291 291 293 294 295 295 294 292 290 289 289 290 292 293 292 290 288 286 285 285 284 281 278 275 268 257 250 251 254 256 257 258 257 257 257 258 260 262 264 266 267 269 270 271 272 272 272 271 269 269 270 272 275 276 277 278 277 276 276 276 273 270 269 269 271 272 274 276 279 282 285
284 286 286 286 287 288 288 289 290 290 291 291 291 291 292 293 296 299 300 300 298 295 293 293 292 293 294 294 290 287 287 287 286 285 283 280 277 274 270 264 257 254 254 255 257 258 259 259 260 261 261 263 265 267 268 270 271 272 272 273 273 272 272 272 273 274 275 276 277 277 275 273 274 275 273 270 268 268 269 271 272 274 278 282 285
283 284 286 288 289 291 291 293 293 293 293 292 290 290 292 296 299 301 301 300 299 297 296 294 293 293 293 291 288 287 289 290 289 287 284 282 280 277 274 271 268 265 264 263 264 265 266 267 268 269 270 271 272 274 275 276 276 276 275 275 275 274 274 274 274 274 274 274 274 274 273 272 273 273 271 267 265 265 266 268 270 273 276 280 284
285 287 289 290 292 294 295 296 297 295 294 291 290 291 294 296 298 299 298 297 297 296 295 294 294 293 292 290 288 289 290 290 289 288 286 284 282 280 277 274 272 271 270 270 270 271 272 273 274 275 276 277 278 279 279 280 280 280 279 278 278 277 277 276 275 274 274 273 273 272 272 272 272 270 265 261 261 262 264 266 269 272 276 279 281
285 288 291 292 294 297 297 298 297 295 293 291 291 292 294 295 296 295 294 294 294 294 293 293 293 292 291 289 288 288 288 288 288 288 288 287 285 284 282 280 277 276 275 275 275 275 275 276 277 278 279 280 281 281 282 282 282 282 282 282 281 280 280 279 278 278 277 276 274 273 271 270 267 263 259 257 259 260 262 265 268 272 275 277 279
284 287 289 292 294 294 294 293 292 291 291 291 291 292 293 294 294 294 294 293 293 293 292 292 291 290 289 288 288 288 288 288 289 290 290 289 289 288 287 287 286 285 284 284 283 283 283 283 284 284 285 286 286 287 287 287 287 287 286 286 285 284 283 282 282 281 279 277 274 272 270 266 262 258 255 256 257 259 261 264 267 271 273 275 277
280 282 284 286 288 288 289 289 289 290 290 291 292 292 293 293 292 292 292 291 291 291 291 290 290 290 289 289 289 289 290 290 291 292 292 293 293 293 293 293 293 293 293 292 290 290 289 290 290 291 292 293 293 293 293 293 293 292 291 290 290 289 288 288 286 284 280 277 274 271 268 264 258 255 254 255 257 259 261 264 267 270 272 273 275
277 278 281 283 284 286 288 288 289 290 290 291 291 291 291 291 291 291 291 291 291 291 291 291 291 291 291 291 292 292 293 294 294 295 296 297 297 298 298 298 298 298 298 296 295 294 294 294 295 297 299 299 299 299 298 298 297 296 294 293 293 293 293 292 289 285 282 279 276 273 270 265 259 256 255 256 258 259 262 265 267 269 271 272 272
278 281 283 285 286 288 288 288 289 290 290 290 291 291 291 291 291 291 291 292 292 291 291 292 292 293 293 294 295 296 296 298 298 299 299 299 299 299 300 300 300 301 300 299 298 298 298 300 301 302 303 303 304 304 304 302 300 299 298 296 295 295 294 293 290 288 286 283 280 276 272 267 263 261 259 260 261 262 264 266 267 268 269 270 270
283 285 287 288 288 288 288 289 289 290 290 291 291 291 291 292 292 292 292 292 292 292 293 294 295 296 296 297 298 298 299 299 300 299 299 299 299 299 299 300 301 300 300 299 300 299 300 302 302 303 304 305 306 306 306 304 302 301 299 298 296 295 294 293 292 291 289 286 283 279 274 270 268 267 265 264 265 265 266 266 266 267 268 268 268
285 286 287 288 289 289 290 290 291 291 291 291 291 291 291 292 291 292 292 292 293 293 294 295 296 297 297 298 298 299 299 299 299 299 299 298 298 298 298 298 298 298 297 298 298 299 300 302 302 303 304 305 305 305 304 303 301 300 299 297 296 294 293 293 292 291 289 286 282 277 274 271 270 268 267 266 266 267 267 266 266 267 266 266 268
286 288 289 289 290 291 291 291 292 291 291 291 291 291 291 292 292 292 293 294 294 295 295 296 297 297 297 297 298 298 299 299 299 298 298 297 296 295 296 296 296 295 296 296 298 299 300 302 302 303 304 304 304 304 304 303 302 301 299 298 296 295 294 293 292 290 288 285 281 277 274 273 271 269 268 268 269 268 267 266 266 266 265 266 268
288 289 290 290 291 291 292 291 292 292 291 291 291 291 292 292 293 293 293 294 294 294 294 295 295 295 295 296 297 297 298 299 299 298 297 296 295 295 295 295 295 295 295 296 297 299 300 301 302 302 303 303 303 304 304 304 304 304 302 301 300 298 296 294 292 289 286 284 281 279 278 276 274 272 272 271 269 268 266 265 264 264 265 266 267